Regional Weather Roundup
Issued by NWS

Home | Current Version | Previous Version | Text Only | Print | Product List | Glossary Off
Versions: 1 2 3 4 5 6 7 8 9 10 11 12 13 14 15 16 17 18 19 20 21 22 23 24 25 26 27 28 29 30 31 32 33 34 35 36 37 38 39 40 41 42 43 44 45 46 47 48 49 50

000
ASUS43 KOAX 271810
RWRNE

WEATHER ROUNDUP FOR NEBRASKA
NATIONAL WEATHER SERVICE OMAHA NE
100 PM CDT MON MAR 27 2017

NOTES: SATELLITE DATA IS BEING USED TO AUGMENT CLOUD COVER ABOVE
       12000 FEET.
       "FAIR" INDICATES FEW OR NO CLOUDS BELOW 12,000 FEET WITH NO
       SIGNIFICANT WEATHER AND/OR OBSTRUCTIONS TO VISIBILITY.

  * THESE STATIONS DO NOT REPORT WEATHER SUCH AS RAIN...SNOW OR FOG.

NEZ001>004-019>022-054>056-271900-
NEBRASKA PANHANDLE

CITY           SKY/WX    TMP DP  RH WIND       PRES   REMARKS
SCOTTSBLUFF    SUNNY     62  30  29 SW10      29.86F
6HR MIN TEMP:  25; 6HR MAX TEMP:  62;

ALLIANCE       SUNNY     62  28  27 SW16G22   29.86F
6HR MIN TEMP:  23; 6HR MAX TEMP:  62;

CHADRON        SUNNY     59  36  42 CALM      29.85F
6HR MIN TEMP:  26; 6HR MAX TEMP:  59;

KIMBALL        PTSUNNY   58  35  42 SW5       29.90F
SIDNEY         SUNNY     60  36  40 SW10G16   29.90F
6HR MIN TEMP:  21; 6HR MAX TEMP:  60;

$$

NEZ057>060-069>072-079>082-271900-
SOUTHWEST NEBRASKA

CITY           SKY/WX    TMP DP  RH WIND       PRES   REMARKS
NORTH PLATTE   SUNNY     55  43  63 SW3       29.94F
6HR MIN TEMP:  36; 6HR MAX TEMP:  55;

IMPERIAL       SUNNY     58  41  53 CALM      29.93F
6HR MIN TEMP:  34; 6HR MAX TEMP:  58;

LEXINGTON      CLOUDY    46  44  93 S8        29.97F
MCCOOK         SUNNY     59  42  53 S7        29.95F
6HR MIN TEMP:  29; 6HR MAX TEMP:  59;

OGALLALA       SUNNY     59  39  47 S3        29.92F
$$

NEZ005>010-023>029-035>040-094-271900-
NORTH CENTRAL NEBRASKA

CITY           SKY/WX    TMP DP  RH WIND       PRES   REMARKS
VALENTINE      SUNNY     54  39  57 S10       29.92F
6HR MIN TEMP:  33; 6HR MAX TEMP:  55;

AINSWORTH      MOSUNNY   53  43  68 SW7       29.94F
BROKEN BOW     CLOUDY    49  42  77 CALM      29.96S
6HR MIN TEMP:  41; 6HR MAX TEMP:  49;

O`NEILL        SUNNY     52  37  58 E5        29.96F
ORD            CLOUDY    50  39  66 SE5       29.96F
6HR MIN TEMP:  42; 6HR MAX TEMP:  51;

THEDFORD       CLOUDY    46  44  95 S5        29.96S
$$

NEZ041-046>049-061>064-073>077-083>087-271900-
SOUTH CENTRAL NEBRASKA

CITY           SKY/WX    TMP DP  RH WIND       PRES   REMARKS
GRAND ISLAND   CLOUDY    47  42  83 N5        29.99F
6HR MIN TEMP:  42; 6HR MAX TEMP:  47;

AURORA         CLOUDY    47  43  87 NW3       29.99S
HASTINGS       CLOUDY    46  41  82 CALM      29.99F
6HR MIN TEMP:  43; 6HR MAX TEMP:  47;

HEBRON         CLOUDY    48  44  83 NE8       29.98F
HOLDREGE       CLOUDY    46  45  96 E3        29.97F
KEARNEY *      CLOUDY    48  39  71 E3        29.99S
YORK           CLOUDY    46  43  87 NW5       29.99S
$$

NEZ011>018-030>034-042>045-271900-
NORTHEAST NEBRASKA

CITY           SKY/WX    TMP DP  RH WIND       PRES   REMARKS
NORFOLK        PTSUNNY   49  37  63 CALM      29.98S
6HR MIN TEMP:  41; 6HR MAX TEMP:  51;

ALBION         PTSUNNY   49  37  62 SW5       29.98F
BLAIR          CLOUDY    48  42  78 N5        29.98R
FREMONT        CLOUDY    48  40  73 N6        30.00R
TEKAMAH        CLOUDY    49  41  74 N5        30.00R
6HR MIN TEMP:  43; 6HR MAX TEMP:  49;

WAYNE          PTSUNNY   53  40  60 N5        29.98S
$$

NEZ050>053-065>068-078-088>093-271900-
SOUTHEAST NEBRASKA

CITY           SKY/WX    TMP DP  RH WIND       PRES   REMARKS
LINCOLN        CLOUDY    51  41  68 N8        30.00S
6HR MIN TEMP:  44; 6HR MAX TEMP:  52;

OMAHA EPPLEY   CLOUDY    50  39  66 N9        29.99R
6HR MIN TEMP:  44; 6HR MAX TEMP:  50;

BEATRICE       CLOUDY    50  45  82 N9        29.98S
FALLS CITY     CLOUDY    50  43  77 N10       29.96S
6HR MIN TEMP:  46; 6HR MAX TEMP:  50;

NEBRASKA CITY  CLOUDY    50  40  70 NE10      29.97F
PLATTSMOUTH    CLOUDY    49  38  64 N6        29.98R
$$

NEZ044-045-051>053-067-271900-
OMAHA AREA

CITY           SKY/WX    TMP DP  RH WIND       PRES   REMARKS
OMAHA EPPLEY   CLOUDY    50  39  66 N9        29.99R
6HR MIN TEMP:  44; 6HR MAX TEMP:  50;

BLAIR          CLOUDY    48  42  78 N5        29.98R
FREMONT        CLOUDY    48  40  73 N6        30.00R
MILLARD        CLOUDY    51  42  72 N5        29.99R
OFFUTT AFB     CLOUDY    49  40  71 NE7       29.98S
PLATTSMOUTH    CLOUDY    49  38  64 N6        29.98R
WAHOO          CLOUDY    49  40  71 N6        29.99S
$$



USA.gov is the U.S. government's official web portal to all federal, state and local government web resources and services.